Location: ?ejeti?ky
(50.4060°N, 14.9016°E)
Time: 07:54:05
(UTC+00:00)

N. Korean satellite - Pass Details

Date: 08 December 2021
Orbit: 446 x 491 km, 97.3° (Epoch: 18 January)

Event Time Altitude Azimuth Distance (km) Brightness Sun altitude
Rises 04:22:59 0° 13° (NNE) 2,467 10.2 -21.9°
Reaches altitude 10° 04:25:02 10° 14° (NNE) 1,587 9.2 -21.6°
Maximum altitude 04:28:26 83° 104° (ESE) 458 6.3 -21.0°
Drops below altitude 10° 04:31:48 10° 192° (SSW) 1,573 9.1 -20.5°
Sets 04:33:49 0° 193° (SSW) 2,442 10.1 -20.2°
